East Lindsay
DateTemperatureDew Point
09/04 - 08:00 PM70.2°61.0°
09/04 - 07:45 PM71.2°61.2°
09/04 - 07:30 PM72.7°61.7°
09/04 - 07:15 PM74.5°62.1°
09/04 - 07:00 PM76.3°61.9°
09/04 - 06:45 PM78.2°61.8°
09/04 - 06:30 PM80.3°61.8°
09/04 - 06:15 PM81.8°61.2°
09/04 - 06:00 PM83.1°61.0°
09/04 - 05:45 PM85.0°60.7°
09/04 - 05:30 PM85.9°61.2°
09/04 - 05:15 PM86.2°61.1°
09/04 - 05:00 PM86.7°61.3°
09/04 - 04:45 PM86.8°62.0°
09/04 - 04:30 PM87.5°62.0°
09/04 - 04:15 PM87.3°62.0°
09/04 - 04:00 PM87.0°62.3°
09/04 - 03:45 PM87.8°62.6°
09/04 - 03:30 PM87.6°62.6°
09/04 - 03:15 PM87.8°62.7°
09/04 - 03:00 PM88.9°62.9°
09/04 - 02:45 PM88.2°62.9°
09/04 - 02:30 PM86.8°62.2°
09/04 - 02:15 PM87.5°63.3°
09/04 - 02:00 PM86.8°63.5°
09/04 - 01:45 PM85.6°63.1°
09/04 - 01:30 PM84.8°62.7°
09/04 - 01:15 PM84.7°62.8°
09/04 - 01:00 PM84.6°63.8°
09/04 - 12:45 PM83.2°63.0°
09/04 - 12:30 PM81.7°62.6°
09/04 - 12:15 PM81.8°63.9°
09/04 - 12:00 PM80.2°63.3°
09/04 - 11:45 AM79.9°62.9°
09/04 - 11:30 AM79.0°62.4°
09/04 - 11:15 AM78.3°62.6°
09/04 - 11:00 AM76.6°62.3°
09/04 - 10:45 AM76.2°62.5°
09/04 - 10:30 AM75.4°62.7°
09/04 - 10:15 AM74.7°62.4°
09/04 - 10:00 AM73.6°62.2°
09/04 - 09:45 AM72.5°61.8°
09/04 - 09:30 AM72.1°61.6°
09/04 - 09:15 AM71.0°61.0°
09/04 - 09:00 AM70.2°60.7°
09/04 - 08:45 AM69.2°59.9°
09/04 - 08:30 AM68.4°59.3°
09/04 - 08:15 AM67.7°58.9°
09/04 - 08:00 AM66.8°58.6°
09/04 - 07:45 AM65.2°57.7°
09/04 - 07:30 AM62.7°56.8°
09/04 - 07:15 AM59.6°56.9°
09/04 - 07:00 AM57.2°56.0°
09/04 - 06:45 AM56.2°55.2°
09/04 - 06:30 AM55.8°54.9°
09/04 - 06:15 AM55.6°54.8°
09/04 - 06:00 AM55.4°54.8°
09/04 - 05:45 AM55.4°54.7°
09/04 - 05:30 AM55.3°54.5°
09/04 - 05:15 AM55.4°54.5°
09/04 - 05:00 AM55.5°54.4°
09/04 - 04:45 AM55.9°54.6°
09/04 - 04:30 AM56.2°54.7°
09/04 - 04:15 AM56.6°54.7°
09/04 - 04:00 AM57.1°54.8°
09/04 - 03:45 AM57.6°54.9°
09/04 - 03:30 AM58.2°55.0°
09/04 - 03:15 AM58.4°54.7°
09/04 - 03:00 AM59.1°54.9°
09/04 - 02:45 AM59.4°55.0°
09/04 - 02:30 AM59.8°55.3°
09/04 - 02:15 AM60.3°55.8°
09/04 - 02:00 AM60.8°56.2°
09/04 - 01:45 AM60.9°56.6°
09/04 - 01:30 AM60.5°57.3°
09/04 - 01:15 AM60.7°57.6°
09/04 - 01:00 AM61.1°57.7°
09/04 - 12:45 AM61.6°57.8°
09/04 - 12:30 AM62.2°57.8°
09/04 - 12:15 AM62.7°58.0°
09/04 - 12:00 AM63.3°58.2°
09/03 - 11:45 PM63.8°58.1°
09/03 - 11:30 PM63.8°58.3°
09/03 - 11:15 PM63.5°58.8°
09/03 - 11:00 PM64.1°58.8°
09/03 - 10:45 PM64.4°58.6°
09/03 - 10:30 PM64.9°59.1°
09/03 - 10:15 PM64.9°59.1°
09/03 - 10:00 PM65.1°59.5°
09/03 - 09:45 PM65.8°59.5°
09/03 - 09:30 PM66.2°59.5°
09/03 - 09:15 PM66.2°59.6°
09/03 - 09:00 PM66.3°59.8°
09/03 - 08:45 PM67.0°60.5°
09/03 - 08:30 PM67.5°60.5°
09/03 - 08:15 PM68.2°61.1°
09/03 - 08:00 PM69.3°62.2°
09/03 - 07:45 PM70.9°62.4°
09/03 - 07:30 PM72.8°64.3°
09/03 - 07:15 PM74.6°63.2°
09/03 - 07:00 PM77.0°62.7°
09/03 - 06:45 PM79.5°63.0°
09/03 - 06:30 PM81.8°62.5°
09/03 - 06:15 PM83.4°59.8°
09/03 - 06:00 PM85.3°57.8°
09/03 - 05:45 PM87.6°57.8°
09/03 - 05:30 PM88.4°58.2°
09/03 - 05:15 PM89.5°58.2°
09/03 - 05:00 PM89.5°57.2°
09/03 - 04:45 PM89.7°57.9°
09/03 - 04:30 PM88.5°57.2°
09/03 - 04:15 PM87.4°57.9°
09/03 - 04:00 PM87.4°57.8°
09/03 - 03:45 PM88.7°57.8°
09/03 - 03:30 PM89.8°58.3°
09/03 - 03:15 PM89.5°59.0°
09/03 - 03:00 PM89.7°58.8°
09/03 - 02:45 PM88.9°58.4°
09/03 - 02:30 PM88.9°59.3°
09/03 - 02:15 PM87.8°59.3°
09/03 - 02:00 PM86.6°58.5°
09/03 - 01:45 PM85.4°58.7°
09/03 - 01:30 PM85.1°59.1°
09/03 - 01:15 PM84.6°59.1°
09/03 - 01:00 PM83.0°58.9°
09/03 - 12:45 PM82.0°59.5°
09/03 - 12:30 PM81.9°59.6°
09/03 - 12:15 PM80.5°59.6°
09/03 - 12:00 PM80.2°59.6°
09/03 - 11:45 AM79.4°59.2°
09/03 - 11:30 AM78.6°59.4°
09/03 - 11:15 AM76.5°59.0°
09/03 - 11:00 AM76.1°58.9°
09/03 - 10:45 AM75.2°59.1°
09/03 - 10:30 AM74.0°59.0°
09/03 - 10:15 AM73.5°58.9°
09/03 - 10:00 AM73.0°59.3°
09/03 - 09:45 AM72.3°59.3°
09/03 - 09:30 AM71.1°59.1°
09/03 - 09:15 AM70.5°59.0°
09/03 - 09:00 AM69.7°58.8°
09/03 - 08:45 AM68.9°58.6°
09/03 - 08:30 AM67.9°58.3°
09/03 - 08:15 AM66.5°58.3°
09/03 - 08:00 AM65.0°58.3°
09/03 - 07:45 AM62.3°58.8°
09/03 - 07:30 AM59.6°59.1°
09/03 - 07:15 AM57.7°57.7°
09/03 - 07:00 AM56.3°56.3°
09/03 - 06:45 AM54.5°54.5°
09/03 - 06:30 AM53.6°53.6°
09/03 - 06:15 AM53.1°53.1°
09/03 - 06:00 AM52.9°52.9°
09/03 - 05:45 AM53.1°53.1°
09/03 - 05:30 AM53.2°53.2°
09/03 - 05:15 AM53.3°53.2°
09/03 - 05:00 AM53.6°53.5°
09/03 - 04:45 AM53.9°53.8°
09/03 - 04:30 AM54.2°54.0°
09/03 - 04:15 AM54.5°54.3°
09/03 - 04:00 AM54.9°54.6°
09/03 - 03:45 AM55.2°54.8°
09/03 - 03:30 AM55.4°55.1°
09/03 - 03:15 AM55.7°55.3°
09/03 - 03:00 AM55.8°55.4°
09/03 - 02:45 AM55.5°54.9°
09/03 - 02:30 AM55.6°54.8°
09/03 - 02:15 AM56.0°55.0°
09/03 - 02:00 AM56.4°55.2°
09/03 - 01:45 AM56.9°55.6°
09/03 - 01:30 AM57.1°55.6°
09/03 - 01:15 AM57.3°55.5°
09/03 - 01:00 AM57.5°55.4°
09/03 - 12:45 AM58.0°56.0°
09/03 - 12:30 AM58.6°56.8°
09/03 - 12:15 AM58.6°56.9°
09/03 - 12:00 AM58.7°56.8°
09/02 - 11:45 PM58.9°56.6°
09/02 - 11:30 PM59.2°56.7°
09/02 - 11:15 PM59.6°56.8°
09/02 - 11:00 PM59.9°57.0°
09/02 - 10:45 PM60.0°57.0°
09/02 - 10:30 PM60.2°57.3°
09/02 - 10:15 PM60.5°57.6°
09/02 - 10:00 PM61.0°58.2°
09/02 - 09:45 PM61.4°58.4°
09/02 - 09:30 PM61.9°58.5°
09/02 - 09:15 PM62.3°58.4°
09/02 - 09:00 PM63.1°58.8°
09/02 - 08:45 PM63.7°58.6°